CW8919 Weather Reports


time (UTC)temp
C
wind
direction
speed
KPH
gust
KPH
rain 1hr
cm
rain 24hr
cm
rain mn
cm
humidity
%
barometer
mb
20200216214439 15 183 1.6 1.6 0.00 0.10 0.03 89 1029.3
20200216212923 15 184 1.6 1.6 0.00 0.10 0.03 90 1029.1
20200216211426 15 184 0.0 1.6 0.00 0.10 0.03 89 1029.1
20200216205937 15 184 0.0 1.6 0.00 0.10 0.03 89 1029.0
20200216204439 15 183 0.0 0.0 0.00 0.10 0.03 88 1028.9
20200216202924 15 184 0.0 1.6 0.00 0.10 0.03 88 1028.9
20200216201430 15 184 0.0 1.6 0.00 0.10 0.03 88 1028.8
20200216195927 15 183 0.0 1.6 0.00 0.10 0.03 88 1028.7
20200216194426 15 183 1.6 1.6 0.00 0.10 0.03 88 1028.5
20200216192932 15 183 1.6 1.6 0.00 0.10 0.03 89 1028.5
20200216191439 15 183 0.0 1.6 0.00 0.10 0.03 89 1028.6
20200216185927 16 183 0.0 1.6 0.00 0.10 0.03 89 1028.5
20200216184439 16 183 1.6 1.6 0.00 0.10 0.03 87 1028.4
20200216182923 16 182 0.0 1.6 0.00 0.10 0.03 88 1028.4
20200216181440 15 181 1.6 1.6 0.00 0.10 0.03 89 1028.3
20200216175934 15 181 1.6 1.6 0.00 0.10 0.03 91 1028.4
20200216174437 15 182 1.6 1.6 0.00 0.10 0.03 91 1028.2
20200216172923 15 184 1.6 1.6 0.00 0.10 0.03 91 1028.3
20200216171427 16 179 0.0 1.6 0.00 0.10 0.03 90 1028.2
20200216165938 16 177 0.0 1.6 0.00 0.10 0.03 90 1028.2
20200216164441 16 177 0.0 1.6 0.00 0.10 0.03 89 1028.0
20200216162926 16 183 1.6 1.6 0.00 0.10 0.03 87 1028.0
20200216161433 16 190 1.6 1.6 0.00 0.10 0.03 86 1028.0
20200216155931 16 187 0.0 1.6 0.00 0.10 0.03 88 1028.0
20200216154432 16 189 1.6 1.6 0.00 0.10 0.03 88 1028.1
20200216152935 16 192 1.6 1.6 0.00 0.10 0.03 87 1028.1
20200216151441 16 199 1.6 1.6 0.00 0.10 0.03 88 1028.0
20200216145929 16 203 0.0 1.6 0.00 0.10 0.03 88 1028.1
20200216144430 16 202 0.0 1.6 0.00 0.10 0.03 88 1028.1
20200216142939 16 198 1.6 1.6 0.00 0.10 0.03 88 1028.1
20200216141442 16 192 0.0 1.6 0.00 0.10 0.03 89 1028.2
20200216135938 16 194 1.6 1.6 0.00 0.10 0.03 88 1028.4
20200216134423 16 198 1.6 1.6 0.00 0.10 0.03 89 1028.4
20200216132929 16 193 0.0 1.6 0.00 0.10 0.03 89 1028.5
20200216131428 16 190 0.0 1.6 0.00 0.10 0.03 90 1028.6
20200216125928 16 191 0.0 1.6 0.00 0.10 0.03 91 1028.8
20200216124438 16 192 1.6 1.6 0.00 0.10 0.03 93 1028.9
20200216122931 16 195 1.6 1.6 0.00 0.10 0.03 93 1029.3
20200216121438 15 192 1.6 1.6 0.00 0.10 0.03 94 1029.4
20200216115941 15 187 1.6 1.6 0.00 0.10 0.03 94 1029.5
20200216114439 15 185 0.0 1.6 0.00 0.10 0.03 93 1029.4
20200216112938 15 175 1.6 1.6 0.00 0.10 0.03 93 1029.4
20200216111439 15 181 1.6 1.6 0.00 0.10 0.03 93 1029.5
20200216105942 15 183 0.0 1.6 0.00 0.10 0.03 94 1029.4
20200216104441 15 185 0.0 1.6 0.00 0.10 0.03 95 1029.2
20200216102942 15 181 1.6 1.6 0.00 0.10 0.03 95 1029.1
20200216101427 15 197 0.0 1.6 0.00 0.10 0.03 96 1029.0
20200216095928 15 202 1.6 1.6 0.00 0.10 0.03 96 1029.0
20200216094435 15 206 1.6 1.6 0.00 0.10 0.03 96 1028.9
20200216092940 15 221 1.6 1.6 0.00 0.10 0.03 97 1028.7
20200216091441 14 227 0.0 1.6 0.00 0.10 0.03 97 1028.5
20200216085932 14 228 1.6 1.6 0.00 0.10 0.03 97 1028.4
20200216084432 13 238 0.0 1.6 0.00 0.10 0.03 97 1028.3
20200216082938 13 239 0.0 1.6 0.00 0.10 0.03 97 1028.0
20200216081425 13 239 0.0 0.0 0.10 0.10 0.03 97 1027.9
20200216075924 12 239 0.0 0.0 0.10 0.10 0.03 97 1027.8
20200216074427 12 239 0.0 0.0 0.10 0.10 0.03 96 1027.8
20200216072932 12 239 0.0 0.0 0.10 0.10 0.03 96 1027.6
20200216071439 12 239 0.0 0.0 0.00 0.00 0.00 96 1027.6
20200216065926 12 239 0.0 0.0 0.00 0.00 0.00 96 1027.5
20200216064428 12 239 0.0 0.0 0.00 0.00 0.00 96 1027.4
20200216062935 12 239 0.0 0.0 0.00 0.00 0.00 95 1027.4
20200216061439 12 239 0.0 0.0 0.00 0.00 0.00 95 1027.5
20200216055939 12 202 0.0 0.0 0.00 0.00 0.00 96 1027.5
20200216054425 12 201 0.0 0.0 0.00 0.00 0.00 96 1027.6
20200216052929 12 202 0.0 0.0 0.00 0.00 0.00 96 1027.5
20200216051432 12 202 0.0 0.0 0.00 0.00 0.00 96 1027.3
20200216045941 12 202 0.0 0.0 0.00 0.00 0.00 96 1027.3
20200216044428 11 202 0.0 0.0 0.00 0.00 0.00 96 1027.3
20200216042933 11 202 0.0 0.0 0.00 0.00 0.00 95 1027.4
20200216041434 11 202 0.0 0.0 0.00 0.00 0.00 94 1027.4
20200216035938 11 202 0.0 0.0 0.00 0.00 0.00 94 1027.3
20200216034442 11 202 0.0 0.0 0.00 0.00 0.00 95 1027.5
20200216032944 11 202 0.0 0.0 0.00 0.00 0.00 95 1027.7
20200216031430 11 202 0.0 0.0 0.00 0.00 0.00 95 1027.8
20200216025939 11 202 0.0 0.0 0.00 0.00 0.00 95 1028.0
20200216024443 10 202 0.0 0.0 0.00 0.00 0.00 95 1027.9
20200216022933 10 202 0.0 0.0 0.00 0.00 0.00 94 1028.1
20200216021436 10 201 0.0 0.0 0.00 0.00 0.00 94 1028.0
20200216015936 10 201 0.0 0.0 0.00 0.00 0.00 94 1028.1
20200216014440 10 202 0.0 0.0 0.00 0.00 0.00 94 1027.9
20200216012931 10 201 0.0 0.0 0.00 0.00 0.00 94 1027.9
20200216011431 10 202 0.0 0.0 0.00 0.00 0.00 93 1028.1
20200216005937 10 201 0.0 0.0 0.00 0.00 0.00 93 1028.2
20200216004424 10 201 0.0 0.0 0.00 0.00 0.00 93 1028.3
20200216002929 10 202 0.0 0.0 0.00 0.00 0.00 93 1028.3
20200216001432 10 202 0.0 0.0 0.00 0.00 0.00 92 1028.4
20200215235933 10 202 0.0 0.0 0.00 0.00 0.00 92 1028.3
20200215234440 10 202 0.0 0.0 0.00 0.00 0.00 92 1028.3
20200215232930 10 202 0.0 0.0 0.00 0.00 0.00 92 1028.3
20200215231429 11 202 0.0 0.0 0.00 0.00 0.00 91 1028.2
20200215225939 11 201 0.0 0.0 0.00 0.00 0.00 92 1027.9
20200215224438 11 201 0.0 0.0 0.00 0.00 0.00 92 1027.9
20200215222936 11 201 0.0 0.0 0.00 0.00 0.00 91 1027.9
20200215221433 11 202 0.0 0.0 0.00 0.00 0.00 91 1027.9
20200215215930 11 202 0.0 0.0 0.00 0.00 0.00 91 1027.9